カタログに戻る

COSMOS 970 DEB

運用中LEO
NORAD 64991·DEBRIS·🇷🇺 Russia

打ち上げ Dec 21, 1977 から Baikonur Cosmodrome

Loading…

次のパス (今後24時間)

TLE

古いSource: Space-Track

元期: Sep 6, 2026, 01:59 UTC

1 64991U 77121DC  26249.08319617  .00000134  00000-0  17324-3 0  9993
2 64991  65.8081  19.8891 0114416  53.9536 307.2069 13.87895088640513

AllMySatでCOSMOS 970 DEBをリアルタイム追跡

Download on the App Store